Regional Weather Roundup
Issued by NWS

Home | Current Version | Previous Version | Graphics & Text | Print | Product List | Glossary On
Versions: 1 2 3 4 5 6 7 8 9 10 11 12 13 14 15 16 17 18 19 20 21 22 23 24 25 26 27 28 29 30 31 32 33 34 35 36 37 38 39 40 41 42 43 44 45 46 47 48 49 50
153
ASUS43 KBIS 222310
RWRND
NORTH DAKOTA REGIONAL WEATHER ROUNDUP
NATIONAL WEATHER SERVICE EASTERN NORTH DAKOTA/GRAND FORKS ND
600 PM CDT MON MAY 22 2017

  NOTE: "FAIR" INDICATES FEW OR NO CLOUDS BELOW 12,000 FEET WITH NO
  SIGNIFICANT WEATHER AND/OR OBSTRUCTIONS TO VISIBILITY.

NDZ001>003-009>011-017-230000-
...NORTHWEST NORTH DAKOTA...

CITY           SKY/WX    TMP DP  RH WIND       PRES   REMARKS
WILLISTON      CLOUDY    67  31  26 N18G26    30.06S
MINOT          CLOUDY    63  36  36 N16       29.96F
MINOT AFB      CLOUDY    63  32  31 N17       29.96R
$$

NDZ018>021-031>035-040>046-230000-
...SOUTHWEST NORTH DAKOTA...

CITY           SKY/WX    TMP DP  RH WIND       PRES   REMARKS
BISMARCK       CLOUDY    61  39  44 NW17      29.99S
DICKINSON      PTSUNNY   60  32  34 N16G23    30.03S
GARRISON         N/A     59  36  42 N8        29.98F
HETTINGER      PTSUNNY   58  34  40 N13G23    30.06R
$$

NDZ004>008-012>016-024-026-027-054-230000-
...NORTHEAST NORTH DAKOTA...

CITY           SKY/WX    TMP DP  RH WIND       PRES   REMARKS
GRAND FORKS    CLOUDY    52  49  89 N12       29.87F
GRAND FORKS AF CLOUDY    50  48  93 N10       29.88S
DEVILS LAKE    CLOUDY    51  42  71 NE18      29.95R
$$

NDZ022-023-025-028>030-036>039-047>053-230000-
...SOUTHEAST NORTH DAKOTA...

CITY           SKY/WX    TMP DP  RH WIND       PRES   REMARKS
JAMESTOWN      CLOUDY    54  41  61 N16       29.92F
FARGO          CLOUDY    51  44  77 N13       29.88R
WAHPETON       MOCLDY    54  41  62 N12G17    29.88R
$$




USA.gov is the U.S. government's official web portal to all federal, state and local government web resources and services.